TimeCET,TemperatureF,Dew PointF,Humidity,Sea Level PressureIn,VisibilityMPH,Wind Direction,Wind SpeedMPH,Gust SpeedMPH,PrecipitationIn,Events,Conditions,WindDirDegrees,DateUTC
12:55 AM,24.8,19.4,80,30.04,-9999.0,NNW,5.8,-,N/A,,Clear,330,2013-02-28 23:55:00
1:00 AM,25,20,72,,7,NNW,5.8,,,,Partly Cloudy,330,2013-03-01 00:00:00
4:00 AM,23,20,82,,9,NW,5.8,,,,Partly Cloudy,310,2013-03-01 03:00:00
4:55 AM,23.0,19.4,86,30.04,-9999.0,NNW,6.9,-,N/A,,Clear,340,2013-03-01 03:55:00
5:55 AM,23.0,19.4,86,29.98,-9999.0,NW,5.8,-,N/A,,Clear,310,2013-03-01 04:55:00
6:55 AM,23.0,19.4,86,29.95,-9999.0,NW,4.6,-,N/A,,Clear,320,2013-03-01 05:55:00
7:00 AM,23,19,80,,16,NW,4.6,,,,,320,2013-03-01 06:00:00
7:55 AM,23.0,14.0,68,29.95,-9999.0,North,5.8,-,N/A,,Clear,350,2013-03-01 06:55:00
9:55 AM,26.6,10.4,51,29.95,-9999.0,North,2.3,-,N/A,,Clear,350,2013-03-01 08:55:00
10:00 AM,27,10,35,,47,North,2.3,,,,,350,2013-03-01 09:00:00
10:55 AM,28.4,10.4,47,29.95,-9999.0,NNW,4.6,-,N/A,,Clear,340,2013-03-01 09:55:00
11:55 AM,30.2,14.0,51,29.95,-9999.0,NE,2.3,-,N/A,,Clear,40,2013-03-01 10:55:00
12:55 PM,32.0,14.0,48,29.95,-9999.0,ESE,5.8,-,N/A,,Clear,120,2013-03-01 11:55:00
1:00 PM,32,15,35,,47,ESE,5.8,,,,,120,2013-03-01 12:00:00
1:55 PM,32.0,14.0,48,29.95,-9999.0,NNE,2.3,-,N/A,,Clear,30,2013-03-01 12:55:00
2:55 PM,32.0,15.8,51,29.92,-9999.0,ESE,3.5,-,N/A,,Clear,120,2013-03-01 13:55:00
3:55 PM,33.8,15.8,48,29.92,-9999.0,East,4.6,-,N/A,,Clear,90,2013-03-01 14:55:00
4:00 PM,33,16,35,,34,East,4.6,,,,,90,2013-03-01 15:00:00
4:55 PM,32.0,17.6,55,29.92,-9999.0,NE,2.3,-,N/A,,Clear,40,2013-03-01 15:55:00
5:55 PM,30.2,19.4,64,29.92,-9999.0,NNW,2.3,-,N/A,,Clear,340,2013-03-01 16:55:00
6:55 PM,26.6,17.6,69,29.92,-9999.0,WNW,2.3,-,N/A,,Clear,300,2013-03-01 17:55:00
7:00 PM,27,17,54,,6,WNW,2.3,,,,,300,2013-03-01 18:00:00
9:55 PM,24.8,15.8,69,29.92,-9999.0,NNW,5.8,-,N/A,,Clear,330,2013-03-01 20:55:00
10:00 PM,26,15,52,,6,NNW,5.8,,,,,330,2013-03-01 21:00:00